Tracking 19817 objects as of 19-Aug-2019
HD Live streaming from Space Station
objects crossing your sky now

METEOR 2-17 DEB

Track METEOR 2-17 DEB now!
10-day predictions


NORAD ID: 29300
Int'l Code: 1988-005P
Perigee: 904.7 km
Apogee: 943.5 km
Inclination: 82.5 °
Period: 103.3 minutes
Semi major axis: 7295 km
RCS: 0.0063 m2 (small)
Launch date: January 30, 1988
Source: Commonwealth of Independent States (former USSR) (CIS)
Launch site: PLESETSK MISSILE AND SPACE COMPLEX (PKMTR)

Note: This is SATELLITE DEBRIS
aabbcc
Your satellite tracking list
Your tracking list is empty




NASA's NSSDC Master Catalog

Two Line Element Set (TLE):
1 29300U 88005P   19228.45293826 +.00000644 +00000-0 +48077-3 0  9999
2 29300 082.5385 129.5214 0026581 295.4957 064.3459 13.93329552670370
Source of the keplerian elements: AFSPC